TimeADT,TemperatureF,Dew PointF,Humidity,Sea Level PressureIn,VisibilityMPH,Wind Direction,Wind SpeedMPH,Gust SpeedMPH,PrecipitationIn,Events,Conditions,WindDirDegrees,DateUTC
12:00 AM,72.7,59.0,62,-9999,-9999.0,NNW,4.6,-,N/A,,Unknown,340,2013-07-16 03:00:00
1:00 AM,70.2,54.3,57,-9999,-9999.0,NNW,1.2,-,N/A,,Unknown,330,2013-07-16 04:00:00
2:00 AM,66.4,48.9,53,-9999,-9999.0,Calm,Calm,-,N/A,,Unknown,0,2013-07-16 05:00:00
3:00 AM,66,50,46,,,NNW,2.2,,,,,330,2013-07-16 06:00:00
3:00 AM,66.0,50.0,56,-9999,-9999.0,NNW,1.2,-,N/A,,Unknown,330,2013-07-16 06:00:00
4:00 AM,65.8,53.2,64,-9999,-9999.0,NNW,2.3,-,N/A,,Unknown,330,2013-07-16 07:00:00
5:00 AM,67.3,56.8,69,-9999,-9999.0,NNW,4.6,-,N/A,,Unknown,330,2013-07-16 08:00:00
6:00 AM,69.1,55.6,62,-9999,-9999.0,NNW,5.8,-,N/A,,Unknown,330,2013-07-16 09:00:00
7:00 AM,70.9,52.7,53,-9999,-9999.0,NNW,4.6,-,N/A,,Unknown,330,2013-07-16 10:00:00
8:00 AM,80.2,66.0,62,-9999,-9999.0,NNW,3.5,-,N/A,,Unknown,330,2013-07-16 11:00:00
9:00 AM,84,67,48,,,NNW,4.6,,,,,340,2013-07-16 12:00:00
9:00 AM,83.8,67.5,58,-9999,-9999.0,NNW,4.6,-,N/A,,Unknown,340,2013-07-16 12:00:00
10:00 AM,85.5,65.1,50,-9999,-9999.0,North,5.8,-,N/A,,Unknown,360,2013-07-16 13:00:00
11:00 AM,90.7,64.0,41,-9999,-9999.0,NNW,5.8,-,N/A,,Unknown,330,2013-07-16 14:00:00
12:00 PM,91.9,63.3,38,-9999,-9999.0,NW,5.8,-,N/A,,Unknown,310,2013-07-16 15:00:00
1:00 PM,93.4,62.1,35,-9999,-9999.0,NNW,6.9,-,N/A,,Unknown,330,2013-07-16 16:00:00
2:00 PM,94.6,59.9,31,-9999,-9999.0,NNW,5.8,-,N/A,,Unknown,330,2013-07-16 17:00:00
3:00 PM,94,62,25,,,NNW,6.9,,,,,330,2013-07-16 18:00:00
3:00 PM,94.1,62.2,35,-9999,-9999.0,NNW,6.9,-,N/A,,Unknown,330,2013-07-16 18:00:00
4:00 PM,93.0,59.9,33,-9999,-9999.0,NW,9.2,-,N/A,,Unknown,320,2013-07-16 19:00:00
5:00 PM,91.8,61.5,36,-9999,-9999.0,NW,9.2,-,N/A,,Unknown,320,2013-07-16 20:00:00
6:00 PM,90.7,63.3,40,-9999,-9999.0,NW,6.9,-,N/A,,Unknown,310,2013-07-16 21:00:00
7:00 PM,87.1,60.3,40,-9999,-9999.0,WNW,5.8,-,N/A,,Unknown,290,2013-07-16 22:00:00
8:00 PM,85.5,65.8,52,-9999,-9999.0,WNW,2.3,-,N/A,,Unknown,300,2013-07-16 23:00:00
9:00 PM,78,69,68,,,WNW,2.2,,,,,290,2013-07-17 00:00:00
9:00 PM,78.3,69.3,74,-9999,-9999.0,WNW,1.2,-,N/A,,Unknown,290,2013-07-17 00:00:00
10:00 PM,70.2,58.8,67,-9999,-9999.0,NW,1.2,-,N/A,,Unknown,320,2013-07-17 01:00:00
11:00 PM,67.1,51.3,57,-9999,-9999.0,NW,1.2,-,N/A,,Unknown,320,2013-07-17 02:00:00